Regional Weather Roundup
Issued by NWS Columbia, SC

Home | Current Version | Previous Version | Text Only | Print | Product List | Glossary On
Versions: 1 2 3 4 5 6 7 8 9 10 11 12 13 14 15 16 17 18 19 20 21 22 23 24 25 26 27 28
000
ASUS42 KCAE 210910
RWRCAE
REGIONAL WEATHER ROUNDUP
NATIONAL WEATHER SERVICE COLUMBIA SC
500 AM EDT THU SEP 21 2017

NOTE: "FAIR" INDICATES FEW OR NO CLOUDS BELOW 12,000 FEET WITH NO
SIGNIFICANT WEATHER AND/OR OBSTRUCTIONS TO VISIBILITY.

NOT ALL STATIONS ARE QUALITY CONTROLLED BY THE NATIONAL
WEATHER SERVICE. USE DATA WITH CAUTION...ESPECIALLY
DEWPOINT OBSERVATIONS.

SCZ001>056-GAZ040-063>065-077-211000-
...UPSTATE SOUTH CAROLINA...

CITY           SKY/WX    TMP DP  RH WIND       PRES   REMARKS
ANDERSON       CLEAR     67  64  90 CALM      30.03R
LIBERTY        SUNNY     61  61 100 CALM      30.04S
SPARTANBURG    CLEAR     68  63  83 N5        30.03S
CLEMSON        CLEAR     69  66  90 N3        30.05R
GREENVILLE     CLEAR     71  64  78 N3        30.05R
GREENWOOD      CLEAR     66  66 100 CALM      30.04R
GREER          CLEAR     67  65  93 CALM      30.04R
ROCK HILL        N/A    N/A N/A N/A MISG      30.03R
CHESTER        SUNNY     68  68 100 CALM      30.03R
LAURENS        SUNNY     64  64 100 N6        30.03R FOG


...CENTRAL SOUTH CAROLINA...

CITY           SKY/WX    TMP DP  RH WIND       PRES   REMARKS
COLUMBIA APT   CLEAR     73  68  84 SW3       29.99R
COLUMBIA OWENS CLEAR     71  69  93 CALM      30.00S
MCENTIRE ANGB  FOG       68  68 100 CALM      30.00R VSB 1
ORANGEBURG     CLEAR     71  70  96 CALM      30.00S FOG
SUMTER SHAW    CLEAR     73  68  83 W7        29.97S
NEWBERRY       SUNNY     68  66  94 CALM      30.05R FOG
AIKEN          FAIR      66  66 100 CALM      30.04S
BARNWELL       FAIR      72  70  94 CALM      30.00S
MANNING        FAIR      70  70 100 CALM      30.00S FOG
CAMDEN         FAIR      68  66  94 CALM      30.01R FOG
LANCASTER      SUNNY     66  66 100 CALM      30.02R FOG
WINNSBORO      SUNNY     70  66  88 CALM      30.01S


...EASTERN AND COASTAL SOUTH CAROLINA...

CITY           SKY/WX    TMP DP  RH WIND       PRES   REMARKS
MYRTLE BEACH   CLEAR     73  72  96 W5        30.00S
N MYRTLE BCH   CLEAR     74  72  93 CALM      29.99S FOG
CONWAY         FAIR      68  68 100 CALM      29.99S FOG
MARION         FAIR      70  68  94 CALM      29.99S FOG
HARTSVILLE     FAIR      66  64  94 CALM      30.00R
FLORENCE       CLEAR     69  69 100 CALM      29.99S
DARLINGTON     CLEAR     67  66  97 CALM      30.00R
CHARLESTON APT CLEAR     74  73  97 W3        29.99S FOG
MOUNT PLEASANT FAIR      72  72 100 CALM      29.99S FOG
WALTERBORO     SUNNY     70  68  94 CALM      30.01S
BEAUFORT       CLEAR     73  73 100 N3        29.99F


...EASTERN GEORGIA...

CITY           SKY/WX    TMP DP  RH WIND       PRES   REMARKS
AUGUSTA BUSH F CLEAR     70  68  93 CALM      30.00R FOG
AUGUSTA DANIEL CLEAR     74  71  91 CALM      30.01S
THOMSON        CLEAR     68  66  93 CALM      30.07R
WASHINGTON     FAIR     N/A N/A N/A N3        30.03R
CLAXTON        FAIR      69  69  99 CALM      30.00S FOG
SYLVANIA         N/A     70  70 100 CALM      30.01S FOG
STATESBORO     CLEAR     70  69  98 CALM      29.99F
SAVANNAH       CLEAR     72  70  93 CALM      29.99F


...SOUTHERN NORTH CAROLINA...

CITY           SKY/WX    TMP DP  RH WIND       PRES   REMARKS
CHARLOTTE      PTCLDY    68  66  93 N5        30.03R
MONROE         CLEAR     70  69  97 W5        30.01S
WADESBORO      SUNNY     66  65  94 CALM      30.00S FOG
RUTHERFORDTON  CLEAR     66  64  93 NW3       30.07R
ASHEVILLE      CLEAR     60  59  96 N6        30.14R

$$




USA.gov is the U.S. government's official web portal to all federal, state and local government web resources and services.